TimeEST,TemperatureF,Dew PointF,Humidity,Sea Level PressureIn,VisibilityMPH,Wind Direction,Wind SpeedMPH,Gust SpeedMPH,PrecipitationIn,Events,Conditions,WindDirDegrees,DateUTC
12:00 AM,78.8,73.4,83,29.92,6.2,West,3.5,-,N/A,,Partly Cloudy,270,2012-11-18 05:00:00
1:00 AM,78,73,80,29.92,12,NNW,5.8,,,,Scattered Clouds,330,2012-11-18 06:00:00
1:00 AM,78.8,73.4,83,29.92,6.2,NNW,5.8,-,N/A,,Partly Cloudy,330,2012-11-18 06:00:00
2:00 AM,78.8,71.6,78,29.89,6.2,North,6.9,-,N/A,,Partly Cloudy,360,2012-11-18 07:00:00
3:00 AM,78.8,71.6,78,29.89,6.2,North,10.4,-,N/A,,Partly Cloudy,350,2012-11-18 08:00:00
4:00 AM,78,72,76,29.89,12,North,8.1,,,,Scattered Clouds,10,2012-11-18 09:00:00
4:00 AM,78.8,71.6,78,29.89,6.2,North,8.1,-,N/A,,Partly Cloudy,10,2012-11-18 09:00:00
5:00 AM,78.8,71.6,78,29.89,6.2,North,8.1,-,N/A,,Partly Cloudy,10,2012-11-18 10:00:00
6:00 AM,78.8,71.6,78,29.92,6.2,North,10.4,-,N/A,,Partly Cloudy,350,2012-11-18 11:00:00
7:00 AM,78,71,72,29.94,14,North,10.4,,,,Haze,0,2012-11-18 12:00:00
7:00 AM,78.8,69.8,74,29.92,6.2,North,10.4,-,N/A,,Partly Cloudy,360,2012-11-18 12:00:00
8:00 AM,80.6,71.6,74,29.95,6.2,North,8.1,-,N/A,,Partly Cloudy,350,2012-11-18 13:00:00
9:00 AM,82.4,71.6,70,29.95,6.2,SSE,4.6,-,N/A,,Partly Cloudy,150,2012-11-18 14:00:00
10:00 AM,84,72,61,29.97,19,South,3.5,,,,Haze,190,2012-11-18 15:00:00
10:00 AM,84.2,73.4,70,29.95,6.2,South,3.5,-,N/A,,Partly Cloudy,190,2012-11-18 15:00:00
11:00 AM,84.2,73.4,70,29.95,6.2,North,4.6,-,N/A,,Partly Cloudy,350,2012-11-18 16:00:00
12:00 PM,86.0,71.6,62,29.92,6.2,SW,6.9,-,N/A,,Partly Cloudy,220,2012-11-18 17:00:00
1:00 PM,87,75,60,29.91,5,SSW,9.2,,,,Scattered Clouds,200,2012-11-18 18:00:00
1:00 PM,87.8,75.2,66,29.89,6.2,SSW,9.2,-,N/A,,Partly Cloudy,200,2012-11-18 18:00:00
2:00 PM,86.0,73.4,66,29.89,6.2,SSW,9.2,-,N/A,,Partly Cloudy,210,2012-11-18 19:00:00
3:00 PM,86.0,75.2,70,29.89,6.2,SSW,8.1,-,N/A,,Partly Cloudy,200,2012-11-18 20:00:00
4:00 PM,86,74,59,29.89,9,South,5.8,,,,Scattered Clouds,190,2012-11-18 21:00:00
4:00 PM,86.0,73.4,66,29.89,6.2,South,5.8,-,N/A,,Scattered Clouds,190,2012-11-18 21:00:00
5:00 PM,84.2,75.2,74,29.89,-9999.0,SSW,4.6,-,N/A,,Scattered Clouds,200,2012-11-18 22:00:00
6:00 PM,82.4,75.2,79,29.92,6.2,West,5.8,-,N/A,,Partly Cloudy,280,2012-11-18 23:00:00
7:00 PM,84.2,77.0,79,29.92,6.2,WNW,9.2,-,N/A,,Partly Cloudy,300,2012-11-19 00:00:00
9:00 PM,80.6,75.2,84,29.98,6.2,WNW,4.6,-,N/A,,Partly Cloudy,300,2012-11-19 02:00:00
10:00 PM,80,74,77,29.97,14,North,11.5,,,,Haze,10,2012-11-19 03:00:00
10:00 PM,80.6,73.4,79,29.95,6.2,North,11.5,-,N/A,,Scattered Clouds,10,2012-11-19 03:00:00
11:00 PM,80.6,73.4,79,29.95,6.2,North,11.5,-,N/A,,Partly Cloudy,10,2012-11-19 04:00:00